Date,TemperatureHighF,TemperatureAvgF,TemperatureLowF,DewpointHighF,DewpointAvgF,DewpointLowF,HumidityHigh,HumidityAvg,HumidityLow,PressureMaxIn,PressureMinIn,WindSpeedMaxMPH,WindSpeedAvgMPH,GustSpeedMaxMPH,PrecipitationSumIn
2013-3-1,39.0,35.0,33.0,31.0,28.9,25.0,85,78,70,29.97,29.92,5,2,10,0.01
2013-3-2,36.0,32.6,28.0,32.0,27.4,20.0,88,81,65,30.03,29.91,6,2,13,0.02
2013-3-3,33.0,28.8,25.0,23.0,17.6,12.0,85,63,45,30.09,30.02,5,2,13,0.03
2013-3-4,51.0,37.5,26.0,23.0,16.2,6.0,66,45,18,30.17,29.98,3,1,7,0.05
2013-3-5,51.0,40.7,34.0,48.0,33.7,21.0,91,77,48,30.03,29.60,13,3,28,1.05
2013-3-6,33.0,30.3,28.0,29.0,26.1,23.0,88,84,76,30.24,29.82,10,4,23,0.28
2013-3-7,38.0,33.2,30.0,29.0,26.8,25.0,87,78,67,30.33,30.21,4,0,7,0.07
2013-3-8,50.0,37.7,27.0,28.0,24.3,23.0,83,61,36,30.40,30.29,5,1,11,0.01
2013-3-9,62.0,45.5,29.0,33.0,27.0,23.0,82,53,23,30.31,30.17,4,0,8,0.00
2013-3-10,70.0,58.0,45.0,39.0,31.8,18.0,63,40,16,30.17,29.99,6,1,15,0.00
2013-3-11,64.0,59.3,49.0,49.0,42.7,29.0,86,57,29,29.99,29.73,12,5,40,0.16
2013-3-12,51.0,43.0,36.0,45.0,34.3,30.0,88,73,47,30.08,29.86,5,2,12,0.20
2013-3-13,44.0,39.1,31.0,30.0,22.7,16.0,68,52,37,30.30,30.06,10,4,21,0.03
2013-3-14,45.0,34.9,25.0,17.0,14.4,10.0,69,44,29,30.37,30.23,5,2,15,0.17
2013-3-15,41.0,37.9,35.0,24.0,21.1,16.0,60,51,36,30.25,30.15,4,0,11,0.18
2013-3-16,71.0,64.9,62.0,45.0,40.7,37.0,44,41,37,29.89,29.84,10,6,27,0.02
2013-3-17,72.0,65.7,59.0,48.0,44.1,33.0,56,46,32,29.97,29.84,5,1,12,0.00
2013-3-18,68.0,55.2,47.0,51.0,45.2,38.0,87,71,43,29.92,29.76,11,2,26,0.00
2013-3-19,57.0,48.5,38.0,48.0,28.2,8.0,89,51,15,30.13,29.83,9,3,23,0.00
2013-3-20,53.0,43.1,34.0,31.0,11.7,0.0,80,31,14,30.13,29.86,10,2,27,0.33
2013-3-21,40.0,30.7,23.0,24.0,11.3,7.0,65,45,27,29.99,29.91,8,3,20,0.28
2013-3-22,45.0,35.2,24.0,23.0,14.5,9.0,67,44,28,30.06,29.98,3,0,9,0.05
2013-3-23,54.0,44.0,37.0,40.0,33.7,23.0,85,68,49,30.02,29.75,5,0,7,0.03
2013-3-24,56.0,47.8,41.0,51.0,43.4,36.0,90,85,74,29.78,29.37,10,1,28,0.60
2013-3-25,41.0,34.0,31.0,35.0,27.1,25.0,86,76,63,29.99,29.59,13,6,28,0.18
2013-3-26,38.0,32.7,30.0,29.0,26.7,25.0,86,79,64,30.27,29.99,7,3,14,0.14
2013-3-27,47.0,37.4,32.0,28.0,23.6,18.0,78,59,34,30.32,30.24,5,2,14,0.01
2013-3-28,55.0,41.5,29.0,27.0,19.7,12.0,71,45,19,30.34,30.24,6,1,18,0.00
2013-3-29,51.0,41.1,34.0,39.0,29.2,19.0,88,65,39,30.34,30.24,4,0,9,0.35
2013-3-30,59.0,48.4,41.0,47.0,41.4,38.0,90,78,55,30.24,30.03,3,0,8,0.52
2013-3-31,60.0,54.5,49.0,52.0,48.3,-99.9,90,83,68,30.03,29.85,9,2,19,0.84